TITAN 3C TRANSTAGE DEB, 38702

Orbit data source: Space-Track

TITAN 3C TRANSTAGE DEB, 38702 is space debris in GEO originally from a launch on Thu, 26 Sep 1968 UTC launched from the Air Force Eastern Test Range (AFETR). Debris objects in space refer to the collection of defunct objects orbiting the Earth. Examples of debris include non-operational satellites, rocket bodies, and fragments generated from explosions, collisions, or faulty payload assembly.

Not visible in the next 10 days
Identifier
38702, 1968-081AC
Orbit
GEO
Country
Flag of USUS
Related business
Manufacturer
Unknown
Mission
Spacecraft
Bus & Motor
Unknown
Mass
Unknown
Launch date (UTC)
1968-09-26 (57 years ago)
Launch vehicle
Unknown
Launch site
Air Force Eastern Test Range (AFETR)
Object type
Payload
Rocket body
Debris
Shape & HBR
Unknown shape, 1.1 m
Radar Cross Section
Small (<0.1 m²)

Expand to show TLE details & history
Last TLE update: 21 hours ago

TLE from 21 hours ago
0 TITAN 3C TRANSTAGE DEB
1 38702U 68081AC  25352.49227394 -.00000312  00000-0  00000-0 0  9997
2 38702   0.8178  30.9991 0195249  47.5325 283.6774  1.02223943 67874
Epoch: 2025-12-18T11:48Z
TLE epoch observation values (Epoch: 2025-12-18T11:48:52.468Z)
Latitude
-0.41603°
Longitude
95.43701°
Altitude
35,070.526 km
Speed
3.108 km/s
True Right ascension
00h 00m 00s
True Declination
0° 24' 56"
Sunlit
Object was in daylight at epoch
Visualization orbit readout
Latitude
Unknown
Longitude
Unknown
Altitude
Unknown
Speed
Unknown
Apparent Right ascension
Unknown
Apparent Declination
Unknown
Sunlit
N/A
Visualization observer readout
Local Sidereal Time
07:12:08
Azimuth
Unknown
Elevation
Unknown
Doppler factor
Unknown
Orbital elements
Apogee altitude
36,061.914 km
Perigee altitude
34,436.377 km
Semi-major axis
41,627.283 km
Eccentricity
0.01952
Inclination
0.8178°
RAAN
30.9991°
Arg. of periapsis
47.5325°
True anomaly
281.49137°
Mean anomaly
283.6774°
Eccentric anomaly
282.58559°
Mean motion
0.25555 °/min
Orbital period
1,408.73 mins
BSTAR
0
Loading maneuver chart data...
Computing Atmospheric mass density...

Documentation

Showing up to 5 results
|